K6OUA-11 Weather Reports


time (UTC)temp
F
wind
direction
speed
knots
gust
knots
rain 1hr
in
rain 24hr
in
rain mn
in
humidity
%
barometer
mb
20260903135702 58 71 0.0 0.0 0.00 0.00 0.00 83
20260903135500 58 71 0.0 0.0 0.00 0.00 0.00 83
20260903135258 57 71 0.0 0.0 0.00 0.00 0.00 83
20260903135054 57 71 0.0 0.0 0.00 0.00 0.00 82
20260903134852 58 71 0.0 0.0 0.00 0.00 0.00 82
20260903134248 58 71 0.0 0.0 0.00 0.00 0.00 82
20260903134046 57 71 0.0 0.0 0.00 0.00 0.00 82
20260903133843 58 71 0.0 0.0 0.00 0.00 0.00 82
20260903133641 58 71 0.0 0.0 0.00 0.00 0.00 82
20260903133441 58 71 0.0 0.0 0.00 0.00 0.00 82
20260903133239 58 71 0.0 0.0 0.00 0.00 0.00 82
20260903132633 58 71 0.0 0.0 0.00 0.00 0.00 81
20260903132431 58 71 0.0 0.0 0.00 0.00 0.00 81
20260903132230 58 71 0.0 0.0 0.00 0.00 0.00 81
20260903132027 58 71 0.0 0.0 0.00 0.00 0.00 81
20260903131824 58 71 0.0 0.0 0.00 0.00 0.00 81
20260903131422 58 71 0.0 0.0 0.00 0.00 0.00 80
20260903131218 58 71 0.0 0.0 0.00 0.00 0.00 80
20260903131017 58 71 0.0 0.0 0.00 0.00 0.00 80
20260903130612 58 71 0.0 0.0 0.00 0.00 0.00 80
20260903130410 59 71 0.0 0.0 0.00 0.00 0.00 80
20260903130211 59 71 0.0 0.0 0.00 0.00 0.00 80
20260903130007 59 71 0.0 0.0 0.00 0.00 0.00 80
20260903125806 59 71 0.0 0.0 0.00 0.00 0.00 80
20260903125401 59 71 0.0 0.9 0.00 0.00 0.00 80
20260903124959 59 71 0.0 2.6 0.00 0.00 0.00 80
20260903124755 59 90 0.0 2.6 0.00 0.00 0.00 80
20260903124555 59 78 0.0 2.6 0.00 0.00 0.00 80
20260903124353 59 78 0.0 2.6 0.00 0.00 0.00 80
20260903124151 59 78 0.0 2.6 0.00 0.00 0.00 80
20260903123949 59 99 1.7 2.6 0.00 0.00 0.00 80
20260903123746 59 106 1.7 2.6 0.00 0.00 0.00 80
20260903123342 59 64 0.0 2.6 0.00 0.00 0.00 80
20260903123142 59 64 0.0 3.5 0.00 0.00 0.00 80
20260903122940 59 111 0.9 3.5 0.00 0.00 0.00 80
20260903122738 59 112 2.6 3.5 0.00 0.00 0.00 80
20260903122536 59 109 0.9 3.5 0.00 0.00 0.00 81
20260903122332 59 122 0.9 3.5 0.00 0.00 0.00 81
20260903121930 58 105 2.6 0.0 0.00 0.00 0.00 81
20260903121727 58 52 0.0 1.7 0.00 0.00 0.00 81
20260903121526 58 52 0.0 1.7 0.00 0.00 0.00 81
20260903121325 58 52 0.0 1.7 0.00 0.00 0.00 81
20260903121123 58 52 0.0 0.0 0.00 0.00 0.00 81
20260903120921 58 63 0.0 0.0 0.00 0.00 0.00 81
20260903120719 58 63 0.0 0.0 0.00 0.00 0.00 81
20260903120517 58 63 0.0 0.0 0.00 0.00 0.00 81
20260903120313 58 63 0.0 0.0 0.00 0.00 0.00 81
20260903120114 58 63 0.0 0.0 0.00 0.00 0.00 81
20260903115911 58 63 0.0 0.0 0.00 0.00 0.00 81
20260903115709 58 63 0.0 0.0 0.00 0.00 0.00 80
20260903115306 59 63 0.0 0.0 0.00 0.00 0.00 79
20260903115102 59 63 0.0 0.0 0.00 0.00 0.00 79
20260903114700 59 63 0.0 0.0 0.00 0.00 0.00 79
20260903114458 59 63 0.0 0.0 0.00 0.00 0.00 79
20260903114054 59 63 0.0 0.0 0.00 0.00 0.00 80
20260903113853 59 63 0.0 0.0 0.00 0.00 0.00 80
20260903113650 59 63 0.0 0.0 0.00 0.00 0.00 80
20260903113448 59 63 0.0 0.0 0.00 0.00 0.00 80
20260903113246 59 63 0.0 0.0 0.00 0.00 0.00 80
20260903113045 59 63 0.0 0.0 0.00 0.00 0.00 80
20260903112843 59 63 0.0 0.0 0.00 0.00 0.00 80
20260903112437 59 63 0.0 0.0 0.00 0.00 0.00 79
20260903112237 59 63 0.0 0.0 0.00 0.00 0.00 79
20260903112033 59 63 0.0 0.0 0.00 0.00 0.00 78
20260903111833 59 63 0.0 0.0 0.00 0.00 0.00 79
20260903111630 59 63 0.0 0.0 0.00 0.00 0.00 78
20260903111429 59 63 0.0 0.0 0.00 0.00 0.00 79
20260903111227 59 63 0.0 0.0 0.00 0.00 0.00 79
20260903111024 59 63 0.0 0.0 0.00 0.00 0.00 79
20260903110823 59 63 0.0 0.0 0.00 0.00 0.00 79
20260903110622 59 63 0.0 0.0 0.00 0.00 0.00 78
20260903110418 59 63 0.0 0.0 0.00 0.00 0.00 79
20260903110217 59 63 0.0 0.0 0.00 0.00 0.00 79
20260903110014 59 63 0.0 0.0 0.00 0.00 0.00 79
20260903105812 59 63 0.0 0.0 0.00 0.00 0.00 80
20260903105610 59 63 0.0 0.0 0.00 0.00 0.00 80
20260903105409 59 63 0.0 0.0 0.00 0.00 0.00 81
20260903105005 58 63 0.0 0.0 0.00 0.00 0.00 81
20260903104803 58 63 0.0 0.0 0.00 0.00 0.00 82
20260903104601 58 63 0.0 0.0 0.00 0.00 0.00 81
20260903104359 58 63 0.0 0.0 0.00 0.00 0.00 81
20260903104159 58 63 0.0 2.6 0.00 0.00 0.00 81
20260903103958 58 63 0.0 2.6 0.00 0.00 0.00 81
20260903103755 58 63 0.0 2.6 0.00 0.00 0.00 81
20260903103553 58 109 0.9 0.0 0.00 0.00 0.00 81
20260903103351 58 78 0.0 0.0 0.00 0.00 0.00 82
20260903103150 58 78 0.0 0.0 0.00 0.00 0.00 82
20260903102948 58 78 0.0 0.0 0.00 0.00 0.00 82
20260903102745 58 78 0.0 0.0 0.00 0.00 0.00 82
20260903102543 58 78 0.0 0.0 0.00 0.00 0.00 82
20260903102140 58 78 0.0 0.0 0.00 0.00 0.00 82
20260903101736 58 78 0.0 0.0 0.00 0.00 0.00 82
20260903101534 58 78 0.0 0.0 0.00 0.00 0.00 82
20260903101332 58 78 0.0 0.0 0.00 0.00 0.00 81
20260903101130 58 78 0.0 0.0 0.00 0.00 0.00 81
20260903100928 59 78 0.0 0.0 0.00 0.00 0.00 81
20260903100727 59 78 0.0 0.0 0.00 0.00 0.00 81
20260903100526 59 78 0.0 0.0 0.00 0.00 0.00 81
20260903100121 59 78 0.0 0.0 0.00 0.00 0.00 81
20260903095917 59 78 0.0 0.0 0.00 0.00 0.00 81
20260903095717 59 78 0.0 0.9 0.00 0.00 0.00 81
20260903095513 59 78 0.0 0.9 0.00 0.00 0.00 81
20260903095314 59 78 0.0 0.9 0.00 0.00 0.00 80
20260903095112 59 112 0.0 0.0 0.00 0.00 0.00 80
20260903094908 59 275 0.0 0.0 0.00 0.00 0.00 81
20260903094707 59 275 0.0 0.0 0.00 0.00 0.00 81
20260903094504 59 275 0.0 0.0 0.00 0.00 0.00 81
20260903094302 59 275 0.0 0.0 0.00 0.00 0.00 81
20260903094102 59 275 0.0 0.0 0.00 0.00 0.00 81
20260903093858 59 275 0.0 0.0 0.00 0.00 0.00 81
20260903093657 59 275 0.0 0.0 0.00 0.00 0.00 81
20260903093252 59 275 0.0 0.0 0.00 0.00 0.00 81
20260903092849 59 275 0.0 0.0 0.00 0.00 0.00 81
20260903092647 59 275 0.0 0.0 0.00 0.00 0.00 80
20260903092445 59 275 0.0 0.0 0.00 0.00 0.00 80
20260903092244 59 275 0.0 0.0 0.00 0.00 0.00 80
20260903092041 59 275 0.0 0.0 0.00 0.00 0.00 80
20260903091841 59 275 0.0 0.0 0.00 0.00 0.00 80
20260903091637 59 275 0.0 0.0 0.00 0.00 0.00 79
20260903091437 59 275 0.0 0.0 0.00 0.00 0.00 79
20260903091233 59 275 0.0 0.0 0.00 0.00 0.00 80
20260903091031 59 275 0.0 0.0 0.00 0.00 0.00 80
20260903090830 60 275 0.0 0.0 0.00 0.00 0.00 81
20260903090629 60 275 0.0 0.0 0.00 0.00 0.00 81
20260903090427 60 275 0.0 0.0 0.00 0.00 0.00 82
20260903090224 60 275 0.0 0.0 0.00 0.00 0.00 82
20260903090024 60 275 0.0 0.0 0.00 0.00 0.00 82
20260903085820 60 275 0.0 0.0 0.00 0.00 0.00 82
20260903085620 60 275 0.0 0.0 0.00 0.00 0.00 82
20260903085416 60 275 0.0 0.0 0.00 0.00 0.00 82
20260903085214 59 275 0.0 0.0 0.00 0.00 0.00 81
20260903085012 59 275 0.0 0.0 0.00 0.00 0.00 81
20260903084812 59 275 0.0 0.0 0.00 0.00 0.00 81
20260903084611 59 275 0.0 0.0 0.00 0.00 0.00 80
20260903084205 59 275 0.0 0.0 0.00 0.00 0.00 80
20260903083801 59 275 0.0 0.0 0.00 0.00 0.00 79
20260903083559 59 275 0.0 0.0 0.00 0.00 0.00 79
20260903083155 59 275 0.0 0.0 0.00 0.00 0.00 79
20260903082953 59 275 0.0 0.0 0.00 0.00 0.00 79
20260903082751 59 275 0.0 0.0 0.00 0.00 0.00 80
20260903082551 59 275 0.0 0.0 0.00 0.00 0.00 80
20260903082349 59 275 0.0 0.0 0.00 0.00 0.00 81
20260903082146 59 275 0.0 0.0 0.00 0.00 0.00 81
20260903081945 60 275 0.0 0.0 0.00 0.00 0.00 82
20260903081744 60 275 0.0 0.0 0.00 0.00 0.00 82
20260903081540 60 275 0.0 0.0 0.00 0.00 0.00 83
20260903081338 60 275 0.0 0.0 0.00 0.00 0.00 83
20260903081138 60 275 0.0 0.0 0.00 0.00 0.00 83
20260903080936 60 275 0.0 0.0 0.00 0.00 0.00 83
20260903080732 60 275 0.0 0.0 0.00 0.00 0.00 83
20260903080532 61 275 0.0 0.0 0.00 0.00 0.00 84
20260903080329 61 275 0.0 0.0 0.00 0.00 0.00 84
20260903080127 61 275 0.0 0.0 0.00 0.00 0.00 84
20260903075928 61 275 0.0 0.0 0.00 0.00 0.00 84
20260903075723 61 275 0.0 0.0 0.00 0.00 0.00 84
20260903075521 61 275 0.0 0.0 0.00 0.00 0.00 85
20260903075319 61 275 0.0 0.0 0.00 0.00 0.00 85
20260903075117 61 275 0.0 0.0 0.00 0.00 0.00 84
20260903074917 61 275 0.0 0.0 0.00 0.00 0.00 84
20260903074713 60 275 0.0 0.0 0.00 0.00 0.00 84
20260903074511 60 275 0.0 0.0 0.00 0.00 0.00 83
20260903074110 60 275 0.0 0.0 0.00 0.00 0.00 82
20260903073906 61 275 0.0 0.0 0.00 0.00 0.00 82
20260903073704 61 275 0.0 0.0 0.00 0.00 0.00 82
20260903073502 61 275 0.0 0.0 0.00 0.00 0.00 82
20260903073302 61 275 0.0 0.0 0.00 0.00 0.00 83
20260903073100 61 275 0.0 0.0 0.00 0.00 0.00 83
20260903072858 61 275 0.0 0.0 0.00 0.00 0.00 83
20260903072656 61 275 0.0 0.0 0.00 0.00 0.00 82
20260903072454 61 275 0.0 0.0 0.00 0.00 0.00 82
20260903072252 61 275 0.0 0.0 0.00 0.00 0.00 82
20260903072050 61 275 0.0 0.0 0.00 0.00 0.00 82
20260903071847 61 275 0.0 0.0 0.00 0.00 0.00 81
20260903071444 61 275 0.0 0.0 0.00 0.00 0.00 81
20260903071243 61 275 0.0 0.0 0.00 0.00 0.00 80
20260903071039 61 275 0.0 0.0 0.00 0.00 0.00 80
20260903070839 61 275 0.0 0.0 0.00 0.00 0.00 80
20260903070637 61 275 0.0 0.0 0.00 0.00 0.00 80
20260903070435 61 275 0.0 0.0 0.00 0.00 0.00 80
20260903070233 61 275 0.0 0.0 0.00 0.00 0.00 79
20260903070031 61 275 0.0 0.0 0.00 0.00 0.00 79
20260903065829 61 275 0.0 0.0 0.00 0.00 0.00 79
20260903065626 61 275 0.0 0.0 0.00 0.00 0.00 79
20260903065224 61 275 0.0 0.0 0.00 0.00 0.00 79
20260903065020 62 275 0.0 0.0 0.00 0.00 0.00 79
20260903064818 62 275 0.0 0.0 0.00 0.00 0.00 79
20260903064616 62 275 0.0 0.0 0.00 0.00 0.00 79
20260903064414 62 275 0.0 0.0 0.00 0.00 0.00 80
20260903064212 62 275 0.0 0.0 0.00 0.00 0.00 80
20260903063809 62 275 0.0 0.0 0.00 0.00 0.00 80
20260903063607 62 275 0.0 0.0 0.00 0.00 0.00 81
20260903063405 62 275 0.0 0.0 0.00 0.00 0.00 82
20260903063203 62 275 0.0 0.0 0.00 0.00 0.00 82
20260903063001 62 275 0.0 0.0 0.00 0.00 0.00 82
20260903062759 62 275 0.0 0.0 0.00 0.00 0.00 81
20260903062557 63 275 0.0 0.0 0.00 0.00 0.00 81
20260903062355 63 275 0.0 0.0 0.00 0.00 0.00 82
20260903062156 63 275 0.0 0.0 0.00 0.00 0.00 82
20260903061951 63 275 0.0 0.0 0.00 0.00 0.00 82
20260903061749 63 275 0.0 0.0 0.00 0.00 0.00 81
20260903061548 63 275 0.0 0.0 0.00 0.00 0.00 81
20260903061346 63 275 0.0 0.0 0.00 0.00 0.00 81
20260903061144 63 275 0.0 0.0 0.00 0.00 0.00 81
20260903060942 63 275 0.0 0.0 0.00 0.00 0.00 81
20260903060740 63 275 0.0 0.0 0.00 0.00 0.00 81
20260903060538 63 275 0.0 0.0 0.00 0.00 0.00 81
20260903060336 63 275 0.0 0.0 0.00 0.00 0.00 80
20260903060134 63 275 0.0 0.0 0.00 0.00 0.00 80
20260903055932 63 275 0.0 0.0 0.00 0.00 0.00 80
20260903055529 63 275 0.0 0.0 0.00 0.00 0.00 79
20260903055327 63 275 0.0 0.0 0.00 0.00 0.00 79
20260903055125 63 275 0.0 0.0 0.00 0.00 0.00 79
20260903054923 63 275 0.0 0.0 0.00 0.00 0.00 79
20260903054721 63 275 0.0 0.0 0.00 0.00 0.00 79
20260903054519 63 275 0.0 0.0 0.00 0.00 0.00 79
20260903054317 63 275 0.0 0.0 0.00 0.00 0.00 78
20260903054115 63 275 0.0 0.0 0.00 0.00 0.00 78
20260903053913 63 275 0.0 0.0 0.00 0.00 0.00 78
20260903053711 63 275 0.0 0.0 0.00 0.00 0.00 78
20260903053509 63 275 0.0 0.0 0.00 0.00 0.00 79
20260903053308 63 275 0.0 0.0 0.00 0.00 0.00 79
20260903053106 64 275 0.0 0.0 0.00 0.00 0.00 78
20260903052904 64 275 0.0 0.0 0.00 0.00 0.00 79
20260903052702 64 275 0.0 0.0 0.00 0.00 0.00 79
20260903052500 64 275 0.0 0.0 0.00 0.00 0.00 79
20260903052258 64 275 0.0 0.0 0.00 0.00 0.00 79
20260903052056 64 275 0.0 0.0 0.00 0.00 0.00 80
20260903051854 64 275 0.0 0.0 0.00 0.00 0.00 80
20260903051450 64 275 0.0 0.0 0.00 0.00 0.00 79
20260903051249 65 275 0.0 0.0 0.00 0.00 0.00 79
20260903051047 65 275 0.0 0.0 0.00 0.00 0.00 78
20260903050845 65 275 0.0 0.0 0.00 0.00 0.00 78
20260903050643 65 275 0.0 0.0 0.00 0.00 0.00 78
20260903050441 65 275 0.0 0.0 0.00 0.00 0.00 78
20260903050239 65 275 0.0 0.0 0.00 0.00 0.00 78
20260903050037 65 275 0.0 0.0 0.00 0.00 0.00 77
20260903045633 65 275 0.0 0.0 0.00 0.00 0.00 77
20260903045433 65 275 0.0 0.0 0.00 0.00 0.00 77
20260903045229 65 275 0.0 0.0 0.00 0.00 0.00 76
20260903045028 65 275 0.0 0.0 0.00 0.00 0.00 76
20260903044826 65 275 0.0 0.0 0.00 0.00 0.00 75
20260903044624 65 275 0.0 0.0 0.00 0.00 0.00 75
20260903044424 65 275 0.0 0.0 0.00 0.00 0.00 74
20260903044220 65 275 0.0 0.0 0.00 0.00 0.00 74
20260903044018 66 275 0.0 0.0 0.00 0.00 0.00 74
20260903043816 66 275 0.0 0.0 0.00 0.00 0.00 74
20260903043614 66 275 0.0 0.0 0.00 0.00 0.00 74
20260903043412 66 275 0.0 0.0 0.00 0.00 0.00 73
20260903043210 66 275 0.0 0.0 0.00 0.00 0.00 73
20260903043008 66 275 0.0 0.0 0.00 0.00 0.00 74
20260903042605 66 275 0.0 0.0 0.00 0.00 0.00 75
20260903042403 66 275 0.0 0.0 0.00 0.00 0.00 75
20260903041959 67 275 0.0 0.0 0.00 0.00 0.00 75
20260903041757 67 275 0.0 0.0 0.00 0.00 0.00 74
20260903041556 67 275 0.0 0.0 0.00 0.00 0.00 74
20260903041353 67 275 0.0 0.0 0.00 0.00 0.00 74
20260903041151 67 275 0.0 2.6 0.00 0.00 0.00 74
20260903040949 67 275 0.0 2.6 0.00 0.00 0.00 74
20260903040546 67 288 0.9 1.7 0.00 0.00 0.00 74
20260903040344 67 289 0.9 1.7 0.00 0.00 0.00 73
20260903040142 67 288 1.7 0.9 0.00 0.00 0.00 73
20260903035940 68 289 0.9 0.9 0.00 0.00 0.00 71
20260903035738 68 267 0.0 3.5 0.00 0.00 0.00 69
20260903035334 68 260 0.0 3.5 0.00 0.00 0.00 69
20260903034930 68 284 0.9 3.5 0.00 0.00 0.00 68
20260903034729 68 298 2.6 2.6 0.00 0.00 0.00 67
20260903034527 68 285 2.6 2.6 0.00 0.00 0.00 67
20260903034325 68 292 0.9 2.6 0.00 0.00 0.00 66
20260903034123 68 291 1.7 2.6 0.00 0.00 0.00 66
20260903033921 68 305 1.7 2.6 0.00 0.00 0.00 65
20260903033719 68 284 2.6 5.2 0.00 0.00 0.00 65
20260903033517 68 288 1.7 5.2 0.00 0.00 0.00 64
20260903033315 68 300 1.7 5.2 0.00 0.00 0.00 65
20260903033113 68 310 1.7 5.2 0.00 0.00 0.00 64
20260903032912 68 310 2.6 5.2 0.00 0.00 0.00 62
20260903032710 68 300 3.5 4.3 0.00 0.00 0.00 63
20260903032306 69 295 2.6 4.3 0.00 0.00 0.00 63
20260903032104 69 306 2.6 5.2 0.00 0.00 0.00 65
20260903031902 69 322 3.5 5.2 0.00 0.00 0.00 63
20260903031700 69 302 3.5 3.5 0.00 0.00 0.00 62
20260903031458 69 306 4.3 3.5 0.00 0.00 0.00 62
20260903031256 69 303 2.6 3.5 0.00 0.00 0.00 60
20260903031056 69 307 3.5 2.6 0.00 0.00 0.00 61
20260903030852 69 310 1.7 2.6 0.00 0.00 0.00 59
20260903030651 69 300 0.9 2.6 0.00 0.00 0.00 58
20260903030449 69 312 0.9 2.6 0.00 0.00 0.00 58
20260903030247 69 296 0.9 2.6 0.00 0.00 0.00 58
20260903030045 69 310 2.6 2.6 0.00 0.00 0.00 58
20260903025843 69 295 0.9 2.6 0.00 0.00 0.00 57
20260903025641 69 302 0.9 0.0 0.00 0.00 0.00 57
20260903025439 69 227 0.0 0.0 0.00 0.00 0.00 56
20260903025237 70 227 0.0 0.0 0.00 0.00 0.00 56
20260903025035 70 227 0.0 0.0 0.00 0.00 0.00 55
20260903024833 70 227 0.0 0.0 0.00 0.00 0.00 55
20260903024632 70 227 0.0 0.0 0.00 0.00 0.00 54
20260903024429 70 227 0.0 0.0 0.00 0.00 0.00 54
20260903024025 70 227 0.0 0.0 0.00 0.00 0.00 54
20260903023823 70 227 0.0 0.0 0.00 0.00 0.00 53
20260903023621 71 227 0.0 0.0 0.00 0.00 0.00 53
20260903023419 71 206 0.0 0.0 0.00 0.00 0.00 53
20260903023217 71 206 0.0 0.0 0.00 0.00 0.00 52
20260903023015 71 206 0.0 0.0 0.00 0.00 0.00 52
20260903022409 72 206 0.0 0.0 0.00 0.00 0.00 51
20260903022207 72 206 0.0 0.9 0.00 0.00 0.00 50
20260903021803 73 206 0.0 0.9 0.00 0.00 0.00 49
20260903021604 73 206 0.0 0.0 0.00 0.00 0.00 49
20260903021359 73 194 0.0 0.0 0.00 0.00 0.00 49
20260903021158 73 258 0.0 0.9 0.00 0.00 0.00 48
20260903020956 73 258 0.0 0.9 0.00 0.00 0.00 48
20260903020754 73 258 0.0 0.9 0.00 0.00 0.00 48
20260903020553 74 258 0.0 0.0 0.00 0.00 0.00 48
20260903020350 74 258 0.0 0.0 0.00 0.00 0.00 48
20260903020149 74 274 0.0 4.3 0.00 0.00 0.00 47
20260903015947 74 274 0.0 4.3 0.00 0.00 0.00 47
20260903015744 74 243 0.0 2.6 0.00 0.00 0.00 47
20260903015542 74 243 0.0 2.6 0.00 0.00 0.00 47
20260903015138 74 239 0.0 5.2 0.00 0.00 0.00 47
20260903014936 74 288 0.9 5.2 0.00 0.00 0.00 47
20260903014734 75 281 1.7 6.1 0.00 0.00 0.00 47
20260903014532 75 262 0.0 6.1 0.00 0.00 0.00 47
20260903014128 75 271 0.9 7.0 0.00 0.00 0.00 46
20260903013926 75 219 0.0 7.0 0.00 0.00 0.00 46
20260903013522 75 278 5.2 6.1 0.00 0.00 0.00 46
20260903013320 76 177 0.9 6.1 0.00 0.00 0.00 45
20260903013118 76 248 2.6 6.1 0.00 0.00 0.00 45
20260903012916 76 260 3.5 6.1 0.00 0.00 0.00 45
20260903012714 76 157 0.9 7.0 0.00 0.00 0.00 45
20260903012310 76 344 0.0 7.0 0.00 0.00 0.00 44
20260903011704 76 253 0.0 6.1 0.00 0.00 0.00 44
20260903011502 76 213 0.9 6.1 0.00 0.00 0.00 44
20260903011301 76 281 0.0 6.1 0.00 0.00 0.00 45
20260903011058 76 282 2.6 6.1 0.00 0.00 0.00 45
20260903010856 76 278 2.6 6.1 0.00 0.00 0.00 45
20260903010655 76 270 1.7 7.0 0.00 0.00 0.00 45
20260903010453 76 265 3.5 7.0 0.00 0.00 0.00 44
20260903010048 76 274 3.5 8.7 0.00 0.00 0.00 45
20260903005847 76 274 3.5 8.7 0.00 0.00 0.00 45
20260903005443 76 268 7.0 7.0 0.00 0.00 0.00 44
20260903005241 77 261 6.1 8.7 0.00 0.00 0.00 45
20260903005041 76 262 6.1 8.7 0.00 0.00 0.00 45
20260903004838 76 277 2.6 8.7 0.00 0.00 0.00 45
20260903004635 76 275 5.2 11.3 0.00 0.00 0.00 45
20260903004433 76 275 7.0 11.3 0.00 0.00 0.00 44
20260903004239 76 268 6.1 12.2 0.00 0.00 0.00 44
20260903004231 76 268 6.1 12.2 0.00 0.00 0.00 44
20260903004029 76 264 7.8 12.2 0.00 0.00 0.00 43
20260903003827 77 258 7.0 12.2 0.00 0.00 0.00 44
20260903003625 77 255 5.2 9.6 0.00 0.00 0.00 44
20260903003423 76 275 9.6 9.6 0.00 0.00 0.00 43
20260903003221 77 255 7.0 10.4 0.00 0.00 0.00 44
20260903003019 77 279 5.2 10.4 0.00 0.00 0.00 44
20260903002615 77 264 4.3 13.0 0.00 0.00 0.00 45
20260903002211 76 264 6.1 9.6 0.00 0.00 0.00 44
20260903002009 77 277 7.0 9.6 0.00 0.00 0.00 44
20260903001807 78 264 4.3 9.6 0.00 0.00 0.00 43
20260903001605 78 261 5.2 8.7 0.00 0.00 0.00 43
20260903001403 78 265 4.3 8.7 0.00 0.00 0.00 42
20260903001201 78 265 6.1 6.1 0.00 0.00 0.00 41
20260903000959 78 264 6.1 6.1 0.00 0.00 0.00 41
20260903000757 79 272 5.2 6.1 0.00 0.00 0.00 41
20260903000556 78 272 3.5 9.6 0.00 0.00 0.00 41
20260903000355 78 248 2.6 9.6 0.00 0.00 0.00 40
20260903000152 78 275 6.1 7.0 0.00 0.00 0.00 40
20260902235950 78 243 5.2 7.0 0.00 0.00 0.00 40
20260902235748 79 295 1.7 7.0 0.00 0.00 0.00 40
20260902235546 78 299 4.3 8.7 0.00 0.00 0.00 40
20260902235344 78 299 1.7 8.7 0.00 0.00 0.00 40
20260902235142 78 270 5.2 9.6 0.00 0.00 0.00 39
20260902234942 78 255 7.0 9.6 0.00 0.00 0.00 39
20260902234334 78 316 1.7 11.3 0.00 0.00 0.00 40
20260902234132 78 270 7.0 13.0 0.00 0.00 0.00 40
20260902233930 78 285 4.3 13.0 0.00 0.00 0.00 40
20260902233728 78 209 3.5 10.4 0.00 0.00 0.00 41
20260902233528 78 230 3.5 10.4 0.00 0.00 0.00 41
20260902233324 78 241 8.7 10.4 0.00 0.00 0.00 41
20260902233122 78 274 5.2 6.1 0.00 0.00 0.00 42
20260902232920 79 264 5.2 6.1 0.00 0.00 0.00 43
20260902232720 78 205 0.0 11.3 0.00 0.00 0.00 43
20260902232516 78 255 1.7 11.3 0.00 0.00 0.00 42
20260902232314 78 222 5.2 11.3 0.00 0.00 0.00 43
20260902232114 78 246 1.7 13.9 0.00 0.00 0.00 43
20260902231911 78 229 5.2 13.9 0.00 0.00 0.00 43
20260902231709 78 236 5.2 10.4 0.00 0.00 0.00 43
20260902231508 78 248 7.0 10.4 0.00 0.00 0.00 43
20260902231306 78 226 0.9 10.4 0.00 0.00 0.00 43
20260902231105 78 278 7.0 13.9 0.00 0.00 0.00 43
20260902230901 78 250 7.0 13.9 0.00 0.00 0.00 43
20260902230659 78 255 7.8 13.9 0.00 0.00 0.00 42
20260902230457 77 270 7.8 13.9 0.00 0.00 0.00 43
20260902230255 77 282 7.8 13.9 0.00 0.00 0.00 43
20260902230053 78 254 10.4 16.5 0.00 0.00 0.00 43
20260902225851 78 253 1.7 16.5 0.00 0.00 0.00 44
20260902225651 78 272 5.2 12.2 0.00 0.00 0.00 43
20260902225043 78 185 0.9 10.4 0.00 0.00 0.00 43
20260902224841 78 281 3.5 10.4 0.00 0.00 0.00 43
20260902224641 78 261 8.7 13.9 0.00 0.00 0.00 43
20260902224437 78 232 7.0 13.9 0.00 0.00 0.00 43
20260902224033 78 274 5.2 11.3 0.00 0.00 0.00 43
20260902223832 79 265 11.3 11.3 0.00 0.00 0.00 42
20260902223630 80 264 7.8 11.3 0.00 0.00 0.00 42
20260902223428 79 257 4.3 11.3 0.00 0.00 0.00 43
20260902223226 79 268 5.2 14.8 0.00 0.00 0.00 45
20260902223026 79 265 8.7 14.8 0.00 0.00 0.00 45
20260902222822 79 271 7.0 14.8 0.00 0.00 0.00 44
20260902222622 79 227 1.7 12.2 0.00 0.00 0.00 45
20260902222216 79 274 9.6 10.4 0.00 0.00 0.00 44
20260902222016 79 206 3.5 10.4 0.00 0.00 0.00 45
20260902221813 79 260 4.3 10.4 0.00 0.00 0.00 46
20260902221408 79 135 0.9 15.6 0.00 0.00 0.00 47
20260902220804 78 253 12.2 15.6 0.00 0.00 0.00 46
20260902220602 78 264 7.8 13.9 0.00 0.00 0.00 47
20260902220158 79 255 9.6 12.2 0.00 0.00 0.00 44
20260902215956 79 275 2.6 12.2 0.00 0.00 0.00 46
20260902215754 79 123 1.7 12.2 0.00 0.00 0.00 47
20260902215147 79 271 7.8 13.9 0.00 0.00 0.00 45
20260902214946 79 262 11.3 13.9 0.00 0.00 0.00 46
20260902214743 79 251 9.6 18.2 0.00 0.00 0.00 45
20260902214542 79 257 7.8 18.2 0.00 0.00 0.00 46
20260902214341 79 271 8.7 18.2 0.00 0.00 0.00 45
20260902214138 78 257 6.1 13.9 0.00 0.00 0.00 46
20260902213936 78 254 9.6 13.9 0.00 0.00 0.00 45
20260902213735 79 267 2.6 14.8 0.00 0.00 0.00 46
20260902213533 79 262 4.3 14.8 0.00 0.00 0.00 46
20260902213330 79 292 6.1 14.8 0.00 0.00 0.00 46
20260902213130 79 257 13.0 13.0 0.00 0.00 0.00 45
20260902212927 78 270 7.8 13.0 0.00 0.00 0.00 46
20260902212725 78 243 6.1 13.0 0.00 0.00 0.00 47
20260902212522 79 246 0.0 13.0 0.00 0.00 0.00 47
20260902212321 79 268 12.2 13.0 0.00 0.00 0.00 46
20260902212119 79 261 5.2 13.9 0.00 0.00 0.00 46
20260902211715 78 282 6.1 12.2 0.00 0.00 0.00 47
20260902211513 79 258 8.7 12.2 0.00 0.00 0.00 46
20260902211311 78 268 7.8 12.2 0.00 0.00 0.00 47
20260902211109 78 278 3.5 13.9 0.00 0.00 0.00 47
20260902210705 78 265 10.4 14.8 0.00 0.00 0.00 46
20260902210502 79 270 7.8 14.8 0.00 0.00 0.00 46
20260902210300 78 264 7.0 14.8 0.00 0.00 0.00 46
20260902210058 79 275 7.0 13.0 0.00 0.00 0.00 45
20260902205857 78 257 5.2 13.0 0.00 0.00 0.00 45
20260902205656 78 296 6.1 13.0 0.00 0.00 0.00 46
20260902205454 78 344 2.6 13.0 0.00 0.00 0.00 46
20260902205252 78 281 8.7 13.0 0.00 0.00 0.00 46
20260902205050 78 247 6.1 12.2 0.00 0.00 0.00 46
20260902204646 78 250 1.7 14.8 0.00 0.00 0.00 48
20260902204444 78 261 5.2 14.8 0.00 0.00 0.00 48
20260902204242 77 255 7.8 14.8 0.00 0.00 0.00 48
20260902204040 77 285 7.8 14.8 0.00 0.00 0.00 49
20260902203838 78 281 5.2 14.8 0.00 0.00 0.00 49
20260902203434 77 265 10.4 15.6 0.00 0.00 0.00 48
20260902203232 78 234 10.4 12.2 0.00 0.00 0.00 48
20260902203031 78 270 8.7 12.2 0.00 0.00 0.00 48
20260902202829 79 271 6.1 12.2 0.00 0.00 0.00 48
20260902202423 79 244 1.7 12.2 0.00 0.00 0.00 48
20260902202221 78 262 10.4 12.2 0.00 0.00 0.00 48
20260902201817 78 261 5.2 12.2 0.00 0.00 0.00 48
20260902201617 79 260 7.8 12.2 0.00 0.00 0.00 47
20260902201415 79 257 6.1 12.2 0.00 0.00 0.00 47
20260902201009 78 257 7.0 13.0 0.00 0.00 0.00 46
20260902200808 79 268 12.2 13.0 0.00 0.00 0.00 46
20260902200001 78 277 7.8 11.3 0.00 0.00 0.00 45
20260902195757 79 275 5.2 11.3 0.00 0.00 0.00 45
20260902195557 79 275 7.8 11.3 0.00 0.00 0.00 44
20260902195353 79 234 5.2 11.3 0.00 0.00 0.00 43
20260902194749 80 264 6.1 13.0 0.00 0.00 0.00 43
20260902194547 79 270 5.2 8.7 0.00 0.00 0.00 43
20260902194500 79 250 6.1 8.7 0.00 0.00 0.00 43
20260902194346 79 250 6.1 8.7 0.00 0.00 0.00 43
20260902194142 79 180 0.9 9.6 0.00 0.00 0.00 44
20260902193941 78 244 0.9 9.6 0.00 0.00 0.00 45
20260902193740 78 277 0.9 10.4 0.00 0.00 0.00 45
20260902193537 77 262 6.1 10.4 0.00 0.00 0.00 45
20260902193335 78 265 7.0 10.4 0.00 0.00 0.00 44
20260902193132 78 268 7.0 11.3 0.00 0.00 0.00 43
20260902192930 77 275 6.1 11.3 0.00 0.00 0.00 44
20260902192730 77 282 6.1 12.2 0.00 0.00 0.00 44
20260902192124 77 284 5.2 11.3 0.00 0.00 0.00 44
20260902191920 78 313 2.6 11.3 0.00 0.00 0.00 43
20260902191720 78 267 8.7 10.4 0.00 0.00 0.00 42
20260902191518 78 268 7.8 10.4 0.00 0.00 0.00 43
20260902191316 77 248 3.5 10.4 0.00 0.00 0.00 44
20260902191112 77 271 7.0 11.3 0.00 0.00 0.00 43
20260902190912 77 278 7.0 11.3 0.00 0.00 0.00 43
20260902190710 77 278 4.3 8.7 0.00 0.00 0.00 44
20260902190306 78 255 0.9 8.7 0.00 0.00 0.00 44
20260902185900 77 247 6.1 10.4 0.00 0.00 0.00 43
20260902185658 77 264 7.8 11.3 0.00 0.00 0.00 44
20260902185255 77 285 7.0 11.3 0.00 0.00 0.00 45
20260902185052 77 262 5.2 14.8 0.00 0.00 0.00 45
20260902184851 77 270 7.0 14.8 0.00 0.00 0.00 46
20260902184651 77 261 9.6 12.2 0.00 0.00 0.00 46
20260902184447 76 255 7.0 12.2 0.00 0.00 0.00 47
20260902184245 77 277 7.0 11.3 0.00 0.00 0.00 46
20260902184043 77 285 7.8 11.3 0.00 0.00 0.00 46
20260902183841 77 296 1.7 11.3 0.00 0.00 0.00 47
20260902183639 77 251 1.7 11.3 0.00 0.00 0.00 47
20260902183439 76 288 6.1 11.3 0.00 0.00 0.00 47
20260902183236 77 250 10.4 8.7 0.00 0.00 0.00 47
20260902183034 77 250 6.1 8.7 0.00 0.00 0.00 47
20260902182833 77 248 0.9 8.7 0.00 0.00 0.00 47
20260902182721 77 299 1.7 8.7 0.00 0.00 0.00 48
20260902182630 77 299 1.7 8.7 0.00 0.00 0.00 48
20260902182429 76 285 5.2 8.7 0.00 0.00 0.00 47
20260902182225 77 275 7.8 13.9 0.00 0.00 0.00 47
20260902182024 77 275 5.2 13.9 0.00 0.00 0.00 47
20260902181823 77 271 6.1 13.9 0.00 0.00 0.00 47
20260902181619 76 329 2.6 7.8 0.00 0.00 0.00 49
20260902181417 76 279 4.3 7.8 0.00 0.00 0.00 49
20260902181013 76 270 7.0 7.8 0.00 0.00 0.00 50
20260902180813 76 293 4.3 7.8 0.00 0.00 0.00 50
20260902180409 75 219 0.0 8.7 0.00 0.00 0.00 52
20260902180208 74 291 0.0 9.6 0.00 0.00 0.00 52
20260902175803 74 279 7.0 9.6 0.00 0.00 0.00 52
20260902175601 74 291 6.1 8.7 0.00 0.00 0.00 52
20260902175357 74 227 0.0 8.7 0.00 0.00 0.00 53
20260902175158 75 281 5.2 6.1 0.00 0.00 0.00 52
20260902174954 75 264 7.8 6.1 0.00 0.00 0.00 52
20260902174754 75 261 7.8 6.1 0.00 0.00 0.00 52
20260902174550 75 262 1.7 7.8 0.00 0.00 0.00 52
20260902174348 75 286 5.2 7.8 0.00 0.00 0.00 52
20260902174148 75 268 5.2 8.7 0.00 0.00 0.00 51
20260902173946 75 258 7.0 8.7 0.00 0.00 0.00 51
20260902173742 76 300 4.3 7.8 0.00 0.00 0.00 51
20260902173540 76 284 4.3 7.8 0.00 0.00 0.00 51
20260902173338 76 225 0.0 7.8 0.00 0.00 0.00 52
20260902173136 76 279 4.3 7.8 0.00 0.00 0.00 51
20260902172934 76 254 6.1 7.8 0.00 0.00 0.00 51
20260902172732 76 258 6.1 6.1 0.00 0.00 0.00 51
20260902172530 76 246 0.0 6.1 0.00 0.00 0.00 52
20260902172328 75 146 0.0 6.1 0.00 0.00 0.00 52
20260902172126 76 288 3.5 2.6 0.00 0.00 0.00 51
20260902171924 76 150 2.6 2.6 0.00 0.00 0.00 51
20260902171645 75 154 0.0 3.5 0.00 0.00 0.00 53
20260902171520 75 255 0.0 3.5 0.00 0.00 0.00 51
20260902171318 75 154 0.0 3.5 0.00 0.00 0.00 53
20260902171116 75 175 0.0 1.7 0.00 0.00 0.00 53
20260902170858 75 222 0.0 4.3 0.00 0.00 0.00 53
20260902170712 75 222 0.0 4.3 0.00 0.00 0.00 53
20260902170510 75 222 0.0 4.3 0.00 0.00 0.00 53
20260902170310 75 139 0.0 4.3 0.00 0.00 0.00 53
20260902170106 75 139 0.0 4.3 0.00 0.00 0.00 53
20260902165904 74 137 2.6 4.3 0.00 0.00 0.00 53
20260902165702 75 102 3.5 5.2 0.00 0.00 0.00 53
20260902165500 74 132 0.0 5.2 0.00 0.00 0.00 55
20260902165259 74 116 1.7 5.2 0.00 0.00 0.00 55
20260902165057 73 143 1.7 3.5 0.00 0.00 0.00 56
20260902164855 73 104 4.3 3.5 0.00 0.00 0.00 57
20260902164451 72 91 0.9 1.7 0.00 0.00 0.00 59
20260902164251 71 275 0.0 1.7 0.00 0.00 0.00 59
20260902164047 71 275 0.0 2.6 0.00 0.00 0.00 59
20260902163845 71 172 0.0 2.6 0.00 0.00 0.00 60
20260902163643 71 282 0.9 0.9 0.00 0.00 0.00 58
20260902163441 71 258 0.9 0.9 0.00 0.00 0.00 59
20260902163239 71 247 0.0 3.5 0.00 0.00 0.00 61
20260902163037 70 210 0.0 3.5 0.00 0.00 0.00 60
20260902162852 70 213 0.9 4.3 0.00 0.00 0.00 61
20260902162835 70 210 0.0 3.5 0.00 0.00 0.00 61
20260902162633 70 213 0.9 4.3 0.00 0.00 0.00 61
20260902162431 69 260 0.0 4.3 0.00 0.00 0.00 61
20260902162229 69 285 2.6 2.6 0.00 0.00 0.00 61
20260902161825 69 234 0.0 2.6 0.00 0.00 0.00 64
20260902161623 68 215 0.0 3.5 0.00 0.00 0.00 65
20260902161421 68 215 0.0 3.5 0.00 0.00 0.00 65
20260902161219 68 225 0.9 4.3 0.00 0.00 0.00 66
20260902161018 68 241 0.0 4.3 0.00 0.00 0.00 66
20260902160816 67 292 0.0 4.3 0.00 0.00 0.00 67
20260902160614 67 262 0.9 4.3 0.00 0.00 0.00 67
20260902160412 67 265 0.0 4.3 0.00 0.00 0.00 68
20260902160210 67 285 1.7 3.5 0.00 0.00 0.00 69
20260902155806 66 293 2.6 3.5 0.00 0.00 0.00 69
20260902155604 66 299 2.6 0.0 0.00 0.00 0.00 71
20260902155546 66 267 0.0 0.0 0.00 0.00 0.00 71
20260902155430 65 267 0.0 0.0 0.00 0.00 0.00 72
20260902155402 66 303 1.7 0.0 0.00 0.00 0.00 71
20260902155200 66 267 0.0 0.0 0.00 0.00 0.00 71
20260902154958 65 267 0.0 0.0 0.00 0.00 0.00 72
20260902154800 65 267 0.0 3.5 0.00 0.00 0.00 72
20260902154750 65 267 0.0 3.5 0.00 0.00 0.00 73
20260902154555 65 267 0.0 3.5 0.00 0.00 0.00 72
20260902154353 65 267 0.0 3.5 0.00 0.00 0.00 73
20260902154151 64 267 0.9 0.0 0.00 0.00 0.00 73
20260902153949 64 253 0.0 0.0 0.00 0.00 0.00 74
20260902153748 64 227 0.0 0.0 0.00 0.00 0.00 74
20260902153343 63 227 0.0 0.0 0.00 0.00 0.00 73
20260902153141 63 227 0.0 0.0 0.00 0.00 0.00 74
20260902152939 63 227 0.0 0.0 0.00 0.00 0.00 74
20260902152535 63 227 0.0 0.0 0.00 0.00 0.00 74
20260902152334 63 227 0.0 0.0 0.00 0.00 0.00 73
20260902152132 63 227 0.0 0.0 0.00 0.00 0.00 73
20260902151930 63 227 0.0 0.0 0.00 0.00 0.00 72
20260902151728 63 227 0.0 0.0 0.00 0.00 0.00 72
20260902151526 63 227 0.0 0.0 0.00 0.00 0.00 73
20260902151324 64 227 0.0 0.0 0.00 0.00 0.00 71
20260902151122 64 227 0.0 0.0 0.00 0.00 0.00 71
20260902150920 64 227 0.0 0.0 0.00 0.00 0.00 71
20260902150718 64 227 0.0 0.0 0.00 0.00 0.00 72
20260902150349 63 63 0.0 0.0 0.00 0.00 0.00 73
20260902150315 63 63 0.0 0.0 0.00 0.00 0.00 73
20260902150113 63 63 0.0 0.0 0.00 0.00 0.00 74
20260902145911 62 63 0.0 0.0 0.00 0.00 0.00 75
20260902145507 61 63 0.0 1.7 0.00 0.00 0.00 77
20260902145306 61 63 0.0 1.7 0.00 0.00 0.00 77
20260902145103 61 63 0.0 2.6 0.00 0.00 0.00 78
20260902144901 60 135 0.9 2.6 0.00 0.00 0.00 79
20260902144659 60 104 0.9 2.6 0.00 0.00 0.00 79
20260902144255 59 113 0.9 2.6 0.00 0.00 0.00 80
20260902144054 59 119 1.7 2.6 0.00 0.00 0.00 80
20260902143852 59 47 0.0 2.6 0.00 0.00 0.00 80
20260902143650 58 113 1.7 2.6 0.00 0.00 0.00 80
20260902143448 58 101 1.7 2.6 0.00 0.00 0.00 81
20260902143246 58 106 1.7 2.6 0.00 0.00 0.00 81
20260902143044 58 126 1.7 1.7 0.00 0.00 0.00 82
20260902142842 58 116 1.7 1.7 0.00 0.00 0.00 82
20260902142640 58 111 1.7 0.0 0.00 0.00 0.00 82
20260902142438 57 61 0.0 0.0 0.00 0.00 0.00 82
20260902142236 57 61 0.0 0.0 0.00 0.00 0.00 83
20260902142034 57 61 0.0 0.0 0.00 0.00 0.00 83
20260902141833 57 61 0.0 0.0 0.00 0.00 0.00 84
20260902141631 57 61 0.0 0.0 0.00 0.00 0.00 84
20260902141430 57 61 0.0 0.0 0.00 0.00 0.00 84
20260902141227 57 61 0.0 0.0 0.00 0.00 0.00 84
20260902141027 56 61 0.0 0.0 0.00 0.00 0.00 84
20260902140823 56 61 0.0 0.0 0.00 0.00 0.00 84
20260902140303 56 61 0.0 0.0 0.00 0.00 0.00 85
20260902140217 56 61 0.0 0.0 0.00 0.00 0.00 84